www.pogodaiklimat.ru
ПОГОДА в Гюмри

Архив погоды в Гюмри (Армения)

Время
(UTC), дата
22 10.04
23 10.04
00 11.04
01 11.04
02 11.04
03 11.04
04 11.04
05 11.04
06 11.04
07 11.04
08 11.04
09 11.04
10 11.04
11 11.04
12 11.04
13 11.04
14 11.04
15 11.04
16 11.04
17 11.04
18 11.04
19 11.04
20 11.04
21 11.04
22 11.04
23 11.04
00 12.04
01 12.04
02 12.04
03 12.04
04 12.04
05 12.04
06 12.04
07 12.04
08 12.04
09 12.04
10 12.04
11 12.04
12 12.04
13 12.04
14 12.04
15 12.04
16 12.04
17 12.04
18 12.04
19 12.04
20 12.04
21 12.04
22 12.04
23 12.04
00 13.04
01 13.04
02 13.04
03 13.04
04 13.04
05 13.04
06 13.04
07 13.04
08 13.04
09 13.04
10 13.04
11 13.04
12 13.04
13 13.04
14 13.04
15 13.04
16 13.04
17 13.04
18 13.04
19 13.04
20 13.04
21 13.04
22 13.04
23 13.04
00 14.04
01 14.04
02 14.04
03 14.04
04 14.04
05 14.04
06 14.04
07 14.04
08 14.04
09 14.04
10 14.04
11 14.04
12 14.04
13 14.04
14 14.04
15 14.04
16 14.04
17 14.04
18 14.04
19 14.04
20 14.04
21 14.04
22 14.04
23 14.04
00 15.04
01 15.04
02 15.04
03 15.04
04 15.04
05 15.04
06 15.04
07 15.04
08 15.04
09 15.04
10 15.04
11 15.04
12 15.04
13 15.04
14 15.04
15 15.04
16 15.04
17 15.04
18 15.04
19 15.04
20 15.04
21 15.04
22 15.04
23 15.04
00 16.04
01 16.04
02 16.04
03 16.04
04 16.04
05 16.04
06 16.04
07 16.04
08 16.04
09 16.04
10 16.04
11 16.04
12 16.04
13 16.04
14 16.04
15 16.04
16 16.04
17 16.04
18 16.04
19 16.04
20 16.04
21 16.04
22 16.04
23 16.04
00 17.04
01 17.04
02 17.04
03 17.04
04 17.04
05 17.04
06 17.04
07 17.04
08 17.04
09 17.04
10 17.04
11 17.04
12 17.04
13 17.04
14 17.04
15 17.04
16 17.04
17 17.04
18 17.04
19 17.04
20 17.04
Ветер
(напр.,м/с)
Видим. Явления Облачность Т
(С)
Тd
(С)
f
(%)
Тe
(С)
Тes
(С)
Комфортность P
(гПа)
Po
(гПа)
Тmin
(С)
Tmax
(С)
R
(мм)
R24
(мм)
S
(см)
З 2 10 км 5/5 1470 м +7.0 +4.0 81 +5 +5 тепло 1016.0 841.5
З 4 10 км 5/5 1470 м +7.0 +4.0 81 +3 +3 тепло 1015.0 840.7
В 3 10 км 5/5 1470 м +8.0 +4.0 76 +5 +5 по сезону 1016.0 842.1
СВ 5 10 км 5/5 1470 м +8.0 +4.0 76 +4 +4 по сезону 1016.0 842.1
СВ 2 10 км 8/8 1470 м +7.0 +4.0 81 +5 +5 по сезону 1016.0 841.5
СВ 2 10 км 8/8 1470 м
[Cb]
+7.0 +4.0 81 +5 +5 прохладно 1016.0 841.5
С 3 10 км слаб. ливневой дождь 10/10 1080 м
[Cb]
+7.0 +5.0 87 +4 +4 прохладно 1017.0 842.3
СВ 5 10 км 10/10 1080 м +8.0 +5.0 81 +4 +4 прохладно 1016.0 842.1
В 11 10 км 10/10 1200 м +9.0 +4.0 71 +4 +4 очень холодно 1017.0 843.5
В 11 10 км 8/8 1290 м +10.0 +4.0 66 +6 +6 холодно 1018.0 844.9
В 10 10 км 8/8 1290 м +11.0 +3.0 58 +7 +7 прохладно 1017.0 844.6
СВ 11 10 км 8/8 1290 м +11.0 +3.0 58 +7 +7 очень холодно 1018.0 845.4
СВ 13 10 км 8/8 1290 м +11.0 +3.0 58 +7 +7 очень холодно 1018.0 845.4
СВ 12 10 км 5/5 1290 м +13.0 +3.0 51 +10 +10 холодно 1019.0 847.3
В 12 10 км 5/5 1290 м +12.0 +3.0 54 +8 +8 очень холодно 1019.0 846.8
В 13 10 км 5/5 1290 м +13.0 +3.0 51 +10 +10 очень холодно 1019.0 847.3
В 11 10 км 5/5 1470 м +12.0 +3.0 54 +8 +8 очень холодно 1020.0 847.6
В 8 10 км 5/5 1470 м +12.0 +2.0 50 +9 +9 холодно 1020.0 847.6
СВ 4 10 км 5/5 1470 м +10.0 +2.0 58 +8 +8 холодно 1021.0 847.3
СВ 3 10 км 2/2 1470 м +10.0 +2.0 58 +8 +8 очень холодно 1022.0 848.1
С 2 10 км 2/2 1470 м +9.0 +2.0 61 +8 +8 прохладно 1022.0 847.5
В 7 10 км 2/2 1470 м +9.0 +2.0 61 +5 +5 холодно 1022.0 847.5
нст 2 10 км 2/2 1470 м +8.0 +2.0 66 +6 +6 холодно 1023.0 847.8
В 4 10 км 2/2 1470 м +8.0 +2.0 66 +5 +5 прохладно 1023.0 847.8
В 4 10 км нет нижн обл +6.0 +1.0 70 +2 +2 холодно 1023.0 846.6
ЮЗ 2 10 км нет нижн обл +6.0 +1.0 70 +4 +4 прохладно 1024.0 847.4
ЮЗ 2 10 км нет нижн обл +4.0 +1.0 81 +1 +1 холодно 1024.0 846.3
нст 1 10 км нет нижн обл +3.0 +1.0 87 +1 +1 холодно 1023.0 844.8
Ю 2 10 км нет нижн обл +2.0 0.0 87 -1 -1 холодно 1023.0 844.2
ЮЗ 1 10 км нет нижн обл +2.0 +1.0 93 0 0 очень холодно 1024.0 845.1
нст 1 10 км нет нижн обл +5.0 +2.0 81 +4 +4 холодно 1024.0 846.9
нст 1 10 км нет нижн обл +7.0 +3.0 76 +6 +6 прохладно 1024.0 848.1
ЮЗ 2 10 км нет нижн обл +10.0 +3.0 62 +9 +9 прохладно 1024.0 849.8
З 2 10 км нет нижн обл +12.0 +4.0 58 +11 +11 по сезону 1024.0 851.0
З 3 10 км нет нижн обл +14.0 +2.0 44 +13 +13 по сезону 1023.0 851.2
ЮЗ 4 10 км нет нижн обл +15.0 +3.0 44 +14 +14 по сезону 1023.0 851.8
ЮЗ 4 10 км нет нижн обл +16.0 +3.0 42 +15 +15 по сезону 1022.0 851.5
ЮЗ 4 10 км нет нижн обл +16.0 +3.0 42 +15 +15 по сезону 1021.0 850.7
Ю 4 10 км нет нижн обл +17.0 +2.0 36 +17 +17 по сезону 1021.0 851.2
ЮЗ 3 10 км нет нижн обл
ЮЗ 4 10 км нет нижн обл +17.0 +1.0 34 +17 +17 прохладно 1020.0 850.3
ЮЗ 5 10 км нет нижн обл +15.0 +1.0 39 +14 +14 по сезону 1020.0 849.2
ЮЗ 2 10 км нет нижн обл +12.0 +3.0 54 +11 +11 прохладно 1020.0 847.6
СВ 2 10 км нет нижн обл +7.0 0.0 61 +5 +5 очень холодно 1021.0 845.5
СВ 2 10 км нет нижн обл +6.0 -1.0 61 +4 +4 очень холодно 1021.0 844.9
СВ 2 10 км нет нижн обл +4.0 -1.0 70 +1 +1 очень холодно 1021.0 843.7
СВ 2 10 км нет нижн обл +5.0 -1.0 65 +3 +3 очень холодно 1021.0 844.3
В 1 10 км нет нижн обл +1.0 -2.0 80 -1 -1 очень холодно 1021.0 841.9
СВ 2 10 км нет нижн обл +1.0 -2.0 80 -2 -2 очень холодно 1020.0 841.1
В 2 10 км нет нижн обл 0.0 -2.0 86 -4 -4 очень холодно 1020.0 840.5
СВ 2 10 км нет нижн обл -1.0 -3.0 86 -5 -5 очень холодно 1020.0 839.8
нст 1 10 км нет нижн обл -1.0 -4.0 80 -3 -3 очень холодно 1020.0 839.8
штиль 0 10 км нет нижн обл -1.0 -2.0 93 -2 -2 очень холодно 1020.0 839.9
СВ 1 10 км нет нижн обл -2.0 -3.0 93 -4 -4 очень холодно 1020.0 839.2
СВ 1 10 км нет нижн обл +3.0 0.0 81 +2 +2 холодно 1020.0 842.3
нст 1 10 км нет нижн обл +7.0 +1.0 66 +6 +6 прохладно 1020.0 844.7
нст 1 10 км нет нижн обл +10.0 +2.0 58 +10 +10 по сезону 1019.0 845.6
ЮЗ 2 10 км нет нижн обл +13.0 +2.0 47 +13 +13 по сезону 1019.0 847.3
нст 1 10 км нет нижн обл +17.0 -2.0 27 +18 +18 тепло 1018.0 848.6
З 3 10 км нет нижн обл +18.0 -2.0 26 +18 +18 тепло 1017.0 848.3
З 5 10 км нет нижн обл +18.0 -3.0 24 +18 +18 тепло 1017.0 848.3
З 5 10 км нет нижн обл +19.0 -4.0 21 +19 +19 тепло 1016.0 847.9
СЗ 5 10 км нет нижн обл +19.0 -5.0 19 +19 +19 по сезону 1016.0 847.9
З 5 10 км нет нижн обл +19.0 -5.0 19 +19 +19 по сезону 1016.0 847.9
СЗ 6 10 км нет нижн обл +18.0 -3.0 24 +17 +17 прохладно 1015.0 846.6
СЗ 4 10 км нет нижн обл +17.0 -2.0 27 +17 +17 тепло 1015.0 846.1
С 3 10 км нет нижн обл +15.0 0.0 36 +15 +15 по сезону 1016.0 845.9
СВ 2 10 км нет нижн обл +11.0 +1.0 50 +10 +10 холодно 1017.0 844.5
С 2 10 км нет нижн обл +12.0 +1.0 47 +11 +11 по сезону 1017.0 845.1
СВ 3 10 км нет нижн обл +10.0 +3.0 62 +8 +8 прохладно 1017.0 844.0
С 2 10 км нет нижн обл +9.0 +3.0 66 +8 +8 прохладно 1017.0 843.4
С 3 10 км нет нижн обл +9.0 +4.0 71 +7 +7 прохладно 1017.0 843.5
нст 1 10 км нет нижн обл +7.0 +3.0 76 +6 +6 прохладно 1017.0 842.3
ЮЗ 2 10 км нет нижн обл +6.0 +3.0 81 +4 +4 прохладно 1017.0 841.7
З 3 10 км нет нижн обл +4.0 +2.0 87 0 0 очень холодно 1017.0 840.5
ЮЗ 2 10 км нет нижн обл +3.0 +1.0 87 -0 -0 холодно 1017.0 839.9
ЮЗ 2 10 км нет нижн обл +3.0 0.0 81 0 0 холодно 1017.0 839.9
нст 1 10 км нет нижн обл +3.0 0.0 81 +2 +2 очень холодно 1018.0 840.7
Ю 1 10 км нет нижн обл +4.0 +2.0 87 +3 +3 холодно 1018.0 841.3
СВ 2 10 км нет нижн обл +9.0 +2.0 61 +8 +8 по сезону 1018.0 844.2
СВ 4 10 км нет нижн обл +11.0 +3.0 58 +9 +9 прохладно 1018.0 845.4
С 3 10 км 2/2 1470 м +13.0 +1.0 44 +12 +12 по сезону 1018.0 846.4
СВ 3 10 км 2/2 1470 м +14.0 +1.0 41 +13 +13 по сезону 1017.0 846.2
СЗ 4 10 км 2/2 1470 м +15.0 0.0 36 +14 +14 по сезону 1017.0 846.7
СЗ 6 10 км 2/2 1470 м +15.0 0.0 36 +14 +14 по сезону 1017.0 846.7
С 5 10 км 2/2 1470 м +15.0 +1.0 39 +14 +14 прохладно 1016.0 845.9
С 6 10 км 5/5 1470 м +14.0 +2.0 44 +12 +12 холодно 1016.0 845.4
С 5 10 км 5/5 1470 м +14.0 +2.0 44 +13 +13 холодно 1016.0 845.4
С 5 10 км 5/5 1470 м +14.0 +2.0 44 +13 +13 очень холодно 1017.0 846.2
С 5 10 км 5/5 1470 м +12.0 +2.0 50 +10 +10 холодно 1017.0 845.1
СЗ 5 10 км 5/5 1470 м +10.0 +2.0 58 +7 +7 очень холодно 1018.0 844.8
С 6 10 км 5/5 1470 м +9.0 +2.0 61 +6 +6 очень холодно 1019.0 845.1
С 5 10 км 2/2 1470 м +8.0 +2.0 66 +5 +5 очень холодно 1019.0 844.5
С 5 10 км 2/2 1470 м +8.0 +2.0 66 +5 +5 холодно 1019.0 844.5
С 5 10 км 5/5 1470 м +8.0 +1.0 61 +5 +5 холодно 1019.0 844.5
С 5 10 км 5/5 1470 м +8.0 +1.0 61 +5 +5 холодно 1019.0 844.5
СВ 5 10 км 5/5 1470 м +7.0 +1.0 66 +3 +3 холодно 1019.0 843.9
СВ 5 10 км 5/5 1470 м +7.0 0.0 61 +3 +3 холодно 1019.0 843.8
С 4 10 км 5/5 1470 м +6.0 0.0 65 +3 +3 холодно 1020.0 844.1
нст 1 10 км 5/5 1470 м +5.0 0.0 70 +4 +4 прохладно 1020.0 843.5
СВ 3 10 км 5/5 1470 м +4.0 -1.0 70 +1 +1 холодно 1020.0 842.9
С 2 10 км 5/5 1470 м +5.0 -1.0 65 +3 +3 холодно 1021.0 844.3
С 3 10 км 2/2 1470 м +6.0 -1.0 61 +3 +3 холодно 1021.0 844.9
С 2 10 км 2/2 1470 м +8.0 -1.0 53 +7 +7 прохладно 1021.0 846.1
С 2 10 км 2/2 1470 м +10.0 0.0 50 +9 +9 прохладно 1021.0 847.2
нст 2 10 км 2/2 1470 м +12.0 +1.0 47 +11 +11 по сезону 1021.0 848.4
нст 2 10 км 2/2 1470 м +13.0 +1.0 44 +13 +13 по сезону 1021.0 848.9
З 2 10 км 2/2 1470 м +13.0 0.0 41 +13 +13 прохладно 1021.0 848.9
ЮЗ 3 10 км 5/5 1470 м +15.0 +1.0 39 +15 +15 по сезону 1021.0 850.0
нст 2 10 км 5/5 1470 м +16.0 -1.0 31 +16 +16 по сезону 1020.0 849.7
СЗ 3 10 км 2/2 1470 м +16.0 -2.0 29 +16 +16 прохладно 1020.0 849.7
СЗ 5 10 км нет нижн обл +16.0 -4.0 25 +15 +15 холодно 1020.0 849.6
СЗ 4 10 км нет нижн обл +15.0 -7.0 21 +14 +14 холодно 1020.0 849.0
СЗ 4 10 км нет нижн обл +14.0 -5.0 26 +13 +13 прохладно 1021.0 849.4
С 2 10 км нет нижн обл +12.0 -2.0 38 +11 +11 холодно 1021.0 848.3
В 2 10 км нет нижн обл +9.0 +1.0 57 +8 +8 очень холодно 1022.0 847.5
нст 1 10 км нет нижн обл +8.0 +1.0 61 +8 +8 прохладно 1023.0 847.8
нст 1 10 км нет нижн обл +8.0 +1.0 61 +8 +8 прохладно 1023.0 847.8
Ю 1 10 км нет нижн обл +6.0 +1.0 70 +5 +5 очень холодно 1023.0 846.6
нст 1 10 км нет нижн обл +5.0 +1.0 75 +4 +4 холодно 1023.0 846.0
Ю 2 10 км нет нижн обл +3.0 0.0 81 0 0 очень холодно 1023.0 844.8
Ю 1 10 км нет нижн обл +2.0 -2.0 75 +1 +1 очень холодно 1023.0 844.2
нст 1 10 км нет нижн обл 0.0 -3.0 80 -2 -2 очень холодно 1023.0 842.9
СВ 3 10 км нет нижн обл -2.0 -4.0 86 -7 -7 очень холодно 1023.0 841.7
ЮВ 1 10 км нет нижн обл -1.0 -3.0 86 -3 -3 очень холодно 1023.0 842.3
С 1 10 км нет нижн обл -2.0 -4.0 86 -4 -4 очень холодно 1024.0 842.5
нст 1 10 км нет нижн обл +4.0 0.0 75 +3 +3 холодно 1024.0 846.2
нст 1 10 км нет нижн обл +6.0 0.0 65 +5 +5 прохладно 1024.0 847.4
нст 1 10 км нет нижн обл +10.0 +1.0 54 +10 +10 по сезону 1024.0 849.7
нст 1 10 км нет нижн обл +14.0 +2.0 44 +15 +15 тепло 1024.0 852.0
ЮЗ 2 10 км нет нижн обл +15.0 +2.0 41 +15 +15 тепло 1023.0 851.7
ЮЗ 2 10 км нет нижн обл +17.0 -1.0 29 +17 +17 тепло 1022.0 851.9
ЮЗ 3 10 км нет нижн обл +18.0 +1.0 32 +18 +18 тепло 1022.0 852.5
ЮЗ 4 10 км нет нижн обл +19.0 +2.0 32 +19 +19 тепло 1022.0 853.1
ЮЗ 5 10 км нет нижн обл +19.0 0.0 28 +19 +19 тепло 1021.0 852.2
ЮЗ 3 10 км нет нижн обл +19.0 0.0 28 +19 +19 тепло 1021.0 852.2
Ю 6 10 км нет нижн обл +18.0 -1.0 28 +17 +17 по сезону 1021.0 851.6
ЮЗ 5 10 км нет нижн обл +17.0 -4.0 23 +16 +16 тепло 1021.0 851.0
ЮЗ 2 10 км нет нижн обл +14.0 -3.0 31 +14 +14 по сезону 1021.0 849.4
СЗ 3 10 км нет нижн обл +12.0 -4.0 32 +11 +11 прохладно 1022.0 849.1
В 2 10 км нет нижн обл +8.0 -4.0 42 +7 +7 прохладно 1022.0 846.8
С 2 10 км нет нижн обл +9.0 -3.0 43 +8 +8 прохладно 1022.0 847.4
штиль 0 10 км нет нижн обл +6.0 -3.0 52 +6 +6 прохладно 1022.0 845.7
нст 1 10 км нет нижн обл +4.0 -4.0 56 +3 +3 холодно 1022.0 844.5
СВ 3 10 км нет нижн обл +2.0 -4.0 64 -2 -2 очень холодно 1021.0 842.5
СВ 2 10 км нет нижн обл +3.0 -2.0 70 0 0 очень холодно 1021.0 843.1
СВ 2 10 км нет нижн обл +2.0 -3.0 69 -1 -1 холодно 1021.0 842.5
СВ 2 10 км нет нижн обл 0.0 -4.0 74 -3 -3 очень холодно 1021.0 841.3
нст 1 10 км нет нижн обл +1.0 -3.0 75 -1 -1 прохладно 1021.0 841.9
В 1 10 км нет нижн обл 0.0 -3.0 80 -2 -2 очень холодно 1022.0 842.1
нст 1 10 км нет нижн обл +7.0 -1.0 57 +7 +7 по сезону 1022.0 846.3
ЮЗ 1 10 км нет нижн обл +9.0 0.0 53 +9 +9 по сезону 1021.0 846.7
нст 1 10 км нет нижн обл +13.0 +1.0 44 +13 +13 тепло 1021.0 848.9
нст 1 10 км нет нижн обл +16.0 +1.0 36 +17 +17 тепло 1020.0 849.8
ЮЗ 3 10 км нет нижн обл +18.0 +2.0 34 +18 +18 тепло 1019.0 850.0
З 2 10 км нет нижн обл +20.0 +2.0 30 +21 +21 комфорт 1019.0 851.1
Ю 4 10 км нет нижн обл +20.0 +1.0 28 +20 +20 тепло 1018.0 850.3
ЮЗ 4 10 км нет нижн обл +22.0 0.0 23 +21 +21 комфорт 1017.0 850.4
ЮЗ 3 10 км нет нижн обл +22.0 -1.0 21 +21 +21 комфорт 1017.0 850.4
Ю 3 10 км нет нижн обл +22.0 -1.0 21 +21 +21 комфорт 1017.0 850.4
ЮЗ 3 10 км нет нижн обл +22.0 -3.0 19 +21 +21 комфорт 1017.0 850.4
Ю 5 10 км нет нижн обл +20.0 -1.0 24 +20 +20 тепло 1017.0 849.4
Ю 3 10 км нет нижн обл +16.0 -1.0 31 +16 +16 тепло 1017.0 847.2
нст 1 10 км нет нижн обл +14.0 -1.0 36 +15 +15 тепло 1018.0 846.9
СВ 2 10 км нет нижн обл +10.0 -1.0 46 +9 +9 по сезону 1018.0 844.7
СВ 2 10 км нет нижн обл +8.0 -2.0 49 +7 +7 по сезону 1018.0 843.5
СВ 2 10 км нет нижн обл +8.0 -1.0 53 +7 +7 по сезону 1018.0 843.6
Местоположение метеостанции Гюмри (Армения): широта 40.75 долгота 43.86 высота над уровнем моря 1524 м.
В архиве по умолчанию представлена погода в Гюмри за последнюю неделю. Архивные данные за месяц целиком и за предыдущие месяцы, начиная с января 2011 года, Вы можете получить, выбрав интересующий диапазон дат из раскрывающегося списка и нажав кнопку "Найти!".
*Определитесь, кто Вы:
Внимание! Время в таблицах - всемирное. Для получения местного времени необходимо прибавить поправку, которая равна 4 ч.
Некоторые строки с данными для отдельных станций могут быть выделены курсивом. Это означает, что фактические данные отсутствуют по различным причинам, а приведенные значения являются расчетными модельными данными для данного пункта наблюдений.
Смотрите также архив погоды в соседних городах и на ближайших метеорологических станциях:
Партнеры нашего сайта:      
Пояснения к столбцам:
  • Ветер - указаны скорость ветра в м/с - средняя за 10 мин, порывы в срок и между сроками (в фигурных скобках) и направление, откуда дует ветер: С - северный,
  • СВ - северо-восточный, В - восточный, ЮВ - юго-восточный, Ю - южный, ЮЗ - юго-западный, З - западный, СЗ - северо-западный.
  • Видимость - горизонтальная дальность видимости в метрах или километрах. При видимости от 1 до 10 км при отсутствии осадков обычно наблюдается дымка, при ухудшении видимости до 1 км и менее - туман. В сухую погоду видимость может ухудшаться дымом, пылью или мглою.
  • Явления - указаны атмосферные явления, наблюдавшиеся в срок или в последний час перед сроком; фигурными скобками обозначены явления, наблюдавшиеся между сроками (за 1-3 часа до срока); квадратными скобками обозначены град или гололедные отложения с указанием их диаметра в мм.
  • Облачность - указаны через наклонную черту общая и нижняя облачность в баллах и высота нижней границы облаков в метрах; квадратными скобками обозначены формы облаков: Ci - перистые, Cs - перисто-слоистые, Cc - перисто-кучевые, Ac - высококучевые, As - высокослоистые, Sc - слоисто-кучевые, Ns - слоисто-дождевые, Cu - кучевые, Cb - кучево-дождевые. Подробнее классификацию облаков см. в Атласе облаков (PDF).
  • T - Температура воздуха - температура, измеренная на высоте 2 м над землей.
  • Td - Температура точки росы - температура, при понижении до которой содержащийся в воздухе водяной пар достигнет насыщения.
  • f - Относительная влажность воздуха - влажноcть воздуха, измеренная на высоте 2 м над землей.
  • Te - Эффективная температура - температура, которую ощущает одетый по сезону человек в тени. Характеристика душности погоды. При расчете учитывается влияние влажности воздуха и скорости ветра на теплоощущения человека.
  • Tes - Эффективная температура на солнце - температура, которую ощущает человек, с поправкой на солнечный нагрев. Характеристика знойности погоды. Зависит от высоты солнца над горизонтом, облачности и скорости ветра. Ночью, в пасмурную погоду, а также при ветре 12 м/с и более поправка равна нулю.
  • P - Атмосферное давление - приведенное к уровню моря атмосферное давление.
  • Po - Атмосферное давление - измеренное на уровне метеостанции атмосферное давление.
  • Tmin - Минимальная температура - минимум температуры воздуха на высоте 2 м над землей.
  • Tmax - Максимальная температура - максимум температуры воздуха на высоте 2 м над землей.
  • R - Количество осадков - Количество выпавших осадков за период времени, мм. При наведении курсора мыши на число - период времени, за который выпало указанное количество осадков.
  • R24 - Количество осадков - Количество выпавших осадков за 24 часа, мм.
  • S - Снежный покров - Высота снежного покрова, см. При наведении курсора мыши на число - состояние снежного покрова и степень покрытия местности в баллах.